GFSNIL_con_3kmhel_216.txt.gz
Helicity
58 55 62 70 96 101 97 115 161 187 236 217 152 129 140 172 179 182 200 216 288 348
42 39 20 24 74 116 134 137 156 190 177 172 150 127 99 84 96 130 147 155 171 212
35 24 76 107 115 127 125 182 212 193 187 170 155 142 128 117 98 78 81 113 125 143
14 66 95 99 99 130 185 211 155 138 161 150 150 138 123 95 72 76 89 97 103 124
105 109 123 128 126 264 249 215 157 134 110 106 96 80 77 85 95 111 112 102 109 128
139 131 145 241 267 237 205 143 134 148 143 109 108 104 102 106 119 116 134 139 152 162
160 223 250 242 204 186 186 170 175 163 147 148 136 140 104 105 88 85 93 118 126 168
191 197 205 182 162 174 161 151 147 152 149 157 162 113 99 64 61 58 68 91 147 229
156 149 149 171 155 133 135 138 140 158 165 141 99 100 94 66 62 44 45 61 88 125
117 114 127 126 126 131 155 157 170 143 114 88 79 82 84 83 74 50 61 58 74 89
88 102 123 143 136 153 182 146 113 95 70 66 63 60 74 83 89 90 92 95 93 107
96 127 170 174 172 167 124 77 77 63 65 57 55 55 40 56 80 98 109 94 85 99
91 100 105 105 117 67 57 71 67 62 56 67 56 52 41 73 69 85 86 101 108 107
105 122 104 97 73 104 82 62 65 63 46 53 46 58 66 87 87 83 86 88 76 50

GFSNIL_con_3kmhel_219.txt.gz
Helicity
95 69 66 65 65 79 94 117 187 265 305 291 236 213 211 201 186 168 170 165 158 153
64 61 59 76 92 98 111 171 208 200 191 195 209 204 186 152 149 151 144 157 165 157
61 47 49 64 71 91 127 166 167 149 138 135 158 186 193 189 179 160 139 132 119 108
52 56 19 48 77 133 183 197 193 163 154 158 154 159 158 153 134 128 115 106 97 94
74 21 53 119 189 191 206 209 212 208 178 169 161 155 145 132 110 96 87 86 99 101
101 130 205 227 222 234 227 214 198 187 186 160 147 124 113 100 97 98 83 87 80 67
144 196 199 200 208 197 185 189 193 182 168 164 158 146 132 118 110 75 56 50 60 66
198 175 159 158 152 146 164 179 176 180 179 171 146 136 135 120 84 60 73 77 76 63
154 137 121 126 160 186 211 212 189 176 169 165 143 149 126 86 68 78 80 84 69 61
130 140 146 157 192 210 205 199 179 169 160 144 109 97 91 86 66 71 63 56 49 55
98 124 88 123 165 185 171 167 163 141 105 93 82 68 70 70 59 64 65 52 44 46
69 76 119 117 143 133 143 140 129 100 91 86 67 51 41 52 58 65 60 53 54 49
91 84 87 91 104 93 93 114 131 93 78 74 57 36 31 60 57 57 60 59 52 64
73 79 83 100 111 146 132 124 94 80 52 61 44 42 37 61 54 71 79 73 47 32

GFSNIL_con_3kmhel_222.txt.gz
Helicity
184 158 147 134 127 121 121 138 157 193 215 231 240 242 225 198 196 212 208 203 192 180
141 135 124 106 101 101 119 136 171 200 230 224 203 185 185 180 185 187 176 170 176 179
128 115 108 104 93 106 105 152 171 180 168 159 155 170 176 180 190 199 190 180 182 170
113 96 81 78 102 96 117 156 162 148 131 118 112 138 165 179 186 188 176 164 159 149
139 115 113 105 131 126 179 199 185 179 159 151 154 148 146 156 166 166 160 140 132 124
171 142 148 161 164 208 210 202 202 191 178 161 176 182 170 140 127 125 122 124 108 95
155 147 148 151 197 204 186 174 164 161 176 176 162 156 138 135 130 119 102 86 76 56
156 137 131 160 182 180 177 170 166 166 155 146 158 153 152 152 146 131 122 99 78 70
116 112 124 119 133 162 158 155 148 143 147 164 161 163 176 144 122 103 96 103 87 76
143 124 112 121 138 113 118 121 138 161 159 161 150 154 132 114 97 91 85 77 62 60
110 89 125 159 143 128 130 122 132 133 142 107 94 97 98 98 84 79 66 60 57 28
106 99 98 112 115 120 134 120 102 84 79 93 100 69 65 81 68 62 62 53 21 33
110 116 116 91 89 104 92 83 95 81 60 52 61 40 47 48 55 57 43 25 26 30
86 82 86 108 105 115 128 133 112 86 75 70 55 19 30 33 46 49 38 30 40 40

GFSNIL_con_3kmhel_225.txt.gz
Helicity
309 273 241 212 194 178 166 150 157 172 178 189 203 210 217 214 221 222 202 196 183 163
292 254 216 193 175 167 147 148 161 160 172 188 207 220 210 200 189 172 173 176 171 155
269 225 186 165 162 147 135 147 150 169 197 226 221 185 166 163 165 169 159 162 169 157
284 246 206 178 160 148 143 141 158 177 203 208 193 173 157 158 172 182 178 181 180 183
295 250 221 201 186 191 202 211 213 223 216 176 147 137 133 132 137 160 171 164 173 170
292 262 238 224 208 211 213 208 212 191 166 153 140 149 160 160 141 126 120 130 133 142
278 223 190 173 174 172 180 199 195 169 165 175 167 149 153 147 143 142 137 120 112 101
209 180 162 152 175 198 199 164 136 157 155 144 145 142 136 123 107 112 109 107 95 82
197 167 173 178 171 148 137 140 142 137 143 143 138 124 116 114 125 118 115 103 102 99
207 180 132 114 121 128 134 163 149 125 108 111 110 115 133 119 98 102 100 101 99 87
139 98 83 113 116 127 115 106 102 101 102 95 98 102 83 86 75 95 98 81 66 62
80 100 99 89 107 129 135 117 95 80 78 86 91 105 73 74 73 84 83 61 52 40
131 154 130 143 120 96 102 108 97 94 69 56 67 62 47 63 83 63 58 54 38 18
164 132 128 126 119 106 109 114 107 106 78 47 63 65 44 58 69 66 39 44 31 29